Караидельский

Россия / Республика Башкортостан     55°45′38″N   56°57′07″E
темп.,
°C
ветер,
м/с
пор.,
м/с
влажн.,
%
обл.,
%
осадки,
мм/ч
давл.,
гПа
погр.,
м
12 мая, ср
ср1223:00+14вюв11565 0.0 102810
02:00+13юв11545 0.0 102810
05:00+11вюв11555 0.0 102910
08:00+17ююв00445 0.0 102998
11:00+24з11324 0.0 1028828
14:00+26сз22295 0.0 10282583
17:00+25ссз22306 0.0 10272513
20:00+20ссз22513 0.0 102716
13 мая, чт
чт1323:00+16в11654 0.0 102811
02:00+14в11695 0.0 102811
05:00+13юв11725 0.0 102810
08:00+18ю00585 0.0 1029132
11:00+24сз11402 0.0 10281087
14:00+26сз21335 0.0 10272182
17:00+26сз21320 0.0 10262299
20:00+22с22530 0.0 102613
14 мая, пт
пт1423:00+17вюв11620 0.0 102711
02:00+16юв11680 0.0 102711
05:00+14ююв11781 0.0 102711
08:00+19ююз23572 0.0 1027194
11:00+24юз35340 0.0 10271059
14:00+26юз46252 0.0 10261913
17:00+26юз45297 0.0 10251793
20:00+21ююз25530 0.0 1025102
15 мая, сб
сб1523:00+17ю236511 0.0 102546
02:00+16ююз226912 0.0 102433
05:00+14ю227494 0.0 102537
08:00+19юз255869 0.0 1025235
11:00+24ююз453839 0.0 1024803
14:00+27юз46295 0.0 10241830
17:00+27зюз46299 0.0 10231886
20:00+22юз22505 0.0 102225
16 мая, вс
вс1623:00+17ююз226189 0.0 102211
02:00+16ю226692 0.0 102223
05:00+15ю22685 0.0 102327
08:00+20ююз26555 0.0 1022204
11:00+25юз45375 0.0 1021812
14:00+28юз45285 0.0 10202568
17:00+28зюз462918 0.0 10192914
20:00+23ююз225144 0.0 101824